📊 Raw Sensor Data
Showing records 38176 to 38200 of 84,925 total
| ID | Distance (ft) | Battery V | Battery A | Int Temp (°F) | Int Humid (%) | Ext Temp (°F) | Solar V | RSSI | SNR | Time Stamp |
|---|---|---|---|---|---|---|---|---|---|---|
| 46762 | 15.2 | 3.91 | 0 | 102 | 45 | 91 | 5.10 | -71 | 8 | 07/19/2025 04:30 PM |
| 46761 | 15.2 | 3.91 | 0 | 101 | 45 | 94 | 5.10 | -72 | 8 | 07/19/2025 04:15 PM |
| 46760 | 15.2 | 3.91 | 0 | 100 | 44 | 91 | 5.10 | -71 | 8 | 07/19/2025 04:00 PM |
| 46759 | 15.2 | 3.91 | 0 | 101 | 43 | 94 | 5.10 | -70 | 8 | 07/19/2025 03:45 PM |
| 46758 | 15.2 | 3.91 | 0 | 99 | 43 | 91 | 5.10 | -71 | 7 | 07/19/2025 03:30 PM |
| 46757 | 15.2 | 3.91 | 0 | 97 | 42 | 90 | 5.10 | -70 | 8 | 07/19/2025 03:00 PM |
| 46756 | 15.2 | 3.91 | 0 | 96 | 42 | 90 | 5.10 | -71 | 8 | 07/19/2025 02:45 PM |
| 46755 | 15.1 | 3.91 | 0 | 94 | 41 | 86 | 5.10 | -70 | 8 | 07/19/2025 02:30 PM |
| 46754 | 15.1 | 3.90 | 0 | 93 | 41 | 81 | 5.10 | -70 | 8 | 07/19/2025 02:15 PM |
| 46753 | 15.2 | 3.91 | 0 | 92 | 41 | 82 | 5.10 | -72 | 7 | 07/19/2025 02:00 PM |
| 46752 | 15.1 | 3.91 | 0 | 89 | 41 | 82 | 5.10 | -72 | 7 | 07/19/2025 01:45 PM |
| 46751 | 15.2 | 3.91 | 0 | 88 | 42 | 83 | 5.10 | -71 | 8 | 07/19/2025 01:30 PM |
| 46750 | 15.2 | 3.91 | 0 | 86 | 42 | 80 | 5.10 | -71 | 8 | 07/19/2025 01:15 PM |
| 46749 | 15.2 | 3.91 | 0 | 85 | 43 | 80 | 5.10 | -70 | 8 | 07/19/2025 01:00 PM |
| 46748 | 15.2 | 3.91 | 0 | 84 | 43 | 79 | 5.10 | -72 | 7 | 07/19/2025 12:45 PM |
| 46747 | 15.0 | 3.91 | 0 | 82 | 43 | 79 | 5.10 | -71 | 8 | 07/19/2025 12:30 PM |
| 46746 | 15.2 | 3.91 | 0 | 81 | 43 | 80 | 5.10 | -71 | 7 | 07/19/2025 12:15 PM |
| 46745 | 15.2 | 3.91 | 0 | 79 | 43 | 81 | 5.10 | -71 | 7 | 07/19/2025 12:00 PM |
| 46744 | 15.3 | 3.91 | 0 | 78 | 43 | 74 | 5.10 | -70 | 8 | 07/19/2025 11:45 AM |
| 46743 | 15.3 | 3.91 | 0 | 77 | 43 | 79 | 5.10 | -71 | 7 | 07/19/2025 11:30 AM |
| 46742 | 15.2 | 4.08 | 0 | 76 | 43 | 73 | 5.10 | -71 | 7 | 07/19/2025 11:15 AM |
| 46741 | 15.2 | 3.91 | 0 | 76 | 43 | 74 | 5.10 | -70 | 8 | 07/19/2025 11:00 AM |
| 46740 | 15.3 | 3.91 | 0 | 75 | 43 | 78 | 5.10 | -71 | 8 | 07/19/2025 10:45 AM |
| 46739 | 15.3 | 3.98 | 0 | 74 | 43 | 76 | 5.10 | -70 | 8 | 07/19/2025 10:30 AM |
| 46738 | 15.3 | 3.91 | 0 | 73 | 43 | 74 | 5.10 | -71 | 8 | 07/19/2025 10:15 AM |